Location: Pian di Sc�
(43.6333°N, 11.5500°E)
Time: 09:56:04
(UTC+00:00)

Cosmos 2098 Rocket - Pass Details

Date: 07 August 2020
Orbit: 367 x 1184 km, 82.9° (Epoch: 18 September)

Event Time Altitude Azimuth Distance (km) Brightness Sun altitude
Rises 02:50:25 0° 339° (NNW) 2,986 6.8 -13.1°
Reaches altitude 10° 02:52:42 10° 329° (NNW) 2,196 6.0 -12.8°
Maximum altitude 02:56:59 30° 269° (W) 1,438 4.5 -12.2°
Enters shadow 03:01:20 13° 215° (SW) 2,396 5.5 -11.6°
